• In Belarus
  • List of Countries
  • For 7 days
  • Water Temperature
  • Weather Map
  • Weather Widgets
  • user-avatar
    Login

    Hourly Weather Shusha

    Today, 25 May, Monday

    Time Temperature Precipitation Wind Pressure Humidity
    00:00 +10°C° 0.1 mm 1 mps 661 mmHg 87%
    01:00 +9°C° 0 mm 1 mps 661 mmHg 87%
    02:00 +9°C° 0 mm 1 mps 660 mmHg 87%
    03:00 +9°C° 0 mm 1 mps 660 mmHg 87%
    04:00 +9°C° 0.1 mm 1 mps 661 mmHg 85%
    05:00 +10°C° 0.1 mm 1 mps 661 mmHg 83%
    06:00 +10°C° 0.1 mm 1 mps 661 mmHg 81%
    07:00 +11°C° 0.1 mm 1 mps 661 mmHg 78%
    08:00 +12°C° 0.1 mm 2 mps 661 mmHg 75%
    09:00 +12°C° 0.1 mm 3 mps 661 mmHg 72%
    10:00 +13°C° 0 mm 3 mps 660 mmHg 71%
    11:00 +13°C° 0 mm 3 mps 660 mmHg 70%
    12:00 +13°C° 0 mm 3 mps 660 mmHg 69%
    13:00 +14°C° 0.7 mm 2 mps 659 mmHg 74%
    14:00 +13°C° 0.7 mm 2 mps 658 mmHg 78%
    15:00 +12°C° 0.7 mm 2 mps 658 mmHg 83%
    16:00 +12°C° 0.1 mm 2 mps 658 mmHg 83%
    17:00 +13°C° 0.1 mm 1 mps 657 mmHg 82%
    18:00 +13°C° 0.1 mm 1 mps 657 mmHg 82%
    19:00 +12°C° 0 mm 1 mps 658 mmHg 84%
    20:00 +11°C° 0 mm 1 mps 658 mmHg 86%
    21:00 +9°C° 0 mm 2 mps 658 mmHg 88%
    22:00 +9°C° 0 mm 2 mps 658 mmHg 84%
    23:00 +9°C° 0 mm 2 mps 659 mmHg 80%

    Tomorrow, 26 May, Tuesday

    Time Temperature Precipitation Wind Pressure Humidity
    00:00 +9°C° 0 mm 2 mps 659 mmHg 76%
    01:00 +9°C° 0 mm 2 mps 659 mmHg 73%
    02:00 +9°C° 0 mm 2 mps 659 mmHg 69%
    03:00 +9°C° 0 mm 2 mps 659 mmHg 66%
    04:00 +10°C° 0 mm 2 mps 660 mmHg 66%
    05:00 +12°C° 0 mm 2 mps 660 mmHg 65%
    06:00 +12°C° 0 mm 2 mps 661 mmHg 65%
    07:00 +14°C° 0 mm 2 mps 661 mmHg 59%
    08:00 +16°C° 0 mm 1 mps 662 mmHg 53%
    09:00 +19°C° 0 mm 1 mps 663 mmHg 48%
    10:00 +19°C° 0 mm 2 mps 663 mmHg 48%
    11:00 +20°C° 0 mm 2 mps 663 mmHg 49%
    12:00 +21°C° 0 mm 2 mps 663 mmHg 49%
    13:00 +21°C° 0 mm 3 mps 663 mmHg 49%
    14:00 +21°C° 0 mm 3 mps 663 mmHg 49%
    15:00 +22°C° 0 mm 3 mps 663 mmHg 49%
    16:00 +21°C° 0 mm 2 mps 663 mmHg 53%
    17:00 +20°C° 0 mm 2 mps 663 mmHg 58%
    18:00 +20°C° 0 mm 1 mps 663 mmHg 62%
    19:00 +18°C° 0 mm 1 mps 663 mmHg 67%
    20:00 +15°C° 0 mm 1 mps 663 mmHg 72%
    21:00 +13°C° 0 mm 1 mps 663 mmHg 77%
    22:00 +13°C° 0 mm 1 mps 663 mmHg 77%
    23:00 +13°C° 0 mm 1 mps 663 mmHg 77%

    Day after tomorrow, 27 May, Wednesday

    Time Temperature Precipitation Wind Pressure Humidity
    00:00 +12°C° 0 mm 1 mps 663 mmHg 77%
    01:00 +12°C° 0 mm 1 mps 663 mmHg 77%
    02:00 +12°C° 0 mm 1 mps 662 mmHg 78%
    03:00 +11°C° 0 mm 1 mps 662 mmHg 79%
    04:00 +12°C° 0 mm 1 mps 663 mmHg 76%
    05:00 +13°C° 0 mm 1 mps 663 mmHg 74%
    06:00 +14°C° 0 mm 1 mps 664 mmHg 72%
    07:00 +15°C° 0 mm 1 mps 664 mmHg 68%
    08:00 +16°C° 0 mm 2 mps 664 mmHg 64%
    09:00 +17°C° 0 mm 2 mps 665 mmHg 60%
    10:00 +18°C° 0 mm 2 mps 665 mmHg 59%
    11:00 +20°C° 0 mm 2 mps 665 mmHg 57%
    12:00 +21°C° 0 mm 3 mps 664 mmHg 56%
    13:00 +21°C° 0 mm 2 mps 664 mmHg 56%
    14:00 +21°C° 0 mm 2 mps 664 mmHg 55%
    15:00 +21°C° 0 mm 2 mps 664 mmHg 55%
    16:00 +21°C° 0 mm 2 mps 663 mmHg 59%
    17:00 +21°C° 0 mm 1 mps 663 mmHg 62%
    18:00 +20°C° 0 mm 1 mps 663 mmHg 66%
    19:00 +19°C° 0 mm 1 mps 663 mmHg 69%
    20:00 +16°C° 0 mm 1 mps 663 mmHg 73%
    21:00 +15°C° 0 mm 1 mps 662 mmHg 76%
    22:00 +15°C° 0 mm 1 mps 662 mmHg 76%
    23:00 +14°C° 0 mm 1 mps 662 mmHg 75%

    28 May, Thursday

    Time Temperature Precipitation Wind Pressure Humidity
    00:00 +14°C° 0 mm 1 mps 662 mmHg 75%
    01:00 +14°C° 0 mm 1 mps 662 mmHg 74%
    02:00 +14°C° 0 mm 1 mps 661 mmHg 73%
    03:00 +14°C° 0 mm 1 mps 661 mmHg 72%
    04:00 +15°C° 0 mm 1 mps 661 mmHg 71%
    05:00 +16°C° 0 mm 1 mps 662 mmHg 70%
    06:00 +16°C° 0 mm 0 mps 662 mmHg 69%
    07:00 +19°C° 0 mm 1 mps 662 mmHg 65%
    08:00 +20°C° 0 mm 1 mps 662 mmHg 62%
    09:00 +21°C° 0 mm 2 mps 662 mmHg 58%
    10:00 +23°C° 0 mm 2 mps 662 mmHg 57%
    11:00 +24°C° 0 mm 2 mps 662 mmHg 55%
    12:00 +25°C° 0 mm 2 mps 662 mmHg 54%
    13:00 +25°C° 0 mm 2 mps 662 mmHg 53%
    14:00 +26°C° 0 mm 2 mps 661 mmHg 53%
    15:00 +26°C° 0 mm 2 mps 661 mmHg 52%
    16:00 +25°C° 0 mm 2 mps 661 mmHg 57%
    17:00 +24°C° 0 mm 1 mps 661 mmHg 61%
    18:00 +23°C° 0 mm 1 mps 660 mmHg 66%
    19:00 +22°C° 0 mm 1 mps 660 mmHg 66%
    20:00 +20°C° 0 mm 1 mps 660 mmHg 66%
    21:00 +18°C° 0 mm 2 mps 660 mmHg 66%
    22:00 +18°C° 0 mm 2 mps 660 mmHg 64%
    23:00 +17°C° 0 mm 2 mps 659 mmHg 62%

    29 May, Friday

    Time Temperature Precipitation Wind Pressure Humidity
    00:00 +17°C° 0 mm 2 mps 659 mmHg 59%
    01:00 +17°C° 0 mm 2 mps 658 mmHg 57%
    02:00 +17°C° 0 mm 2 mps 658 mmHg 55%
    03:00 +18°C° 0 mm 1 mps 658 mmHg 52%
    04:00 +18°C° 0.1 mm 1 mps 658 mmHg 55%
    05:00 +19°C° 0.1 mm 1 mps 658 mmHg 58%
    06:00 +20°C° 0.1 mm 1 mps 658 mmHg 60%
    07:00 +21°C° 0.1 mm 1 mps 659 mmHg 57%
    08:00 +23°C° 0.1 mm 1 mps 659 mmHg 53%
    09:00 +25°C° 0.1 mm 1 mps 659 mmHg 49%
    10:00 +26°C° 0 mm 2 mps 659 mmHg 48%
    11:00 +27°C° 0 mm 2 mps 659 mmHg 47%
    12:00 +28°C° 0 mm 2 mps 658 mmHg 46%
    13:00 +28°C° 0 mm 2 mps 658 mmHg 46%
    14:00 +28°C° 0 mm 2 mps 658 mmHg 46%
    15:00 +28°C° 0 mm 2 mps 657 mmHg 45%
    16:00 +27°C° 0 mm 2 mps 657 mmHg 51%
    17:00 +26°C° 0 mm 1 mps 657 mmHg 56%
    18:00 +26°C° 0 mm 1 mps 657 mmHg 61%
    19:00 +24°C° 0 mm 1 mps 657 mmHg 62%
    20:00 +21°C° 0 mm 2 mps 656 mmHg 63%
    21:00 +19°C° 0 mm 2 mps 656 mmHg 64%
    22:00 +19°C° 0 mm 2 mps 656 mmHg 59%
    23:00 +19°C° 0 mm 2 mps 656 mmHg 54%

    30 May, Saturday

    Time Temperature Precipitation Wind Pressure Humidity
    00:00 +18°C° 0 mm 2 mps 656 mmHg 49%
    01:00 +18°C° 0 mm 2 mps 656 mmHg 47%
    02:00 +18°C° 0 mm 2 mps 656 mmHg 44%
    03:00 +18°C° 0 mm 2 mps 656 mmHg 41%
    04:00 +18°C° 0 mm 2 mps 656 mmHg 45%
    05:00 +19°C° 0 mm 2 mps 656 mmHg 49%
    06:00 +19°C° 0 mm 2 mps 657 mmHg 53%
    07:00 +21°C° 0 mm 2 mps 657 mmHg 50%
    08:00 +23°C° 0 mm 2 mps 658 mmHg 48%
    09:00 +25°C° 0 mm 2 mps 658 mmHg 45%
    10:00 +26°C° 0 mm 2 mps 658 mmHg 43%
    11:00 +26°C° 0 mm 2 mps 658 mmHg 42%
    12:00 +27°C° 0 mm 3 mps 659 mmHg 40%
    13:00 +27°C° 0 mm 3 mps 659 mmHg 40%
    14:00 +28°C° 0 mm 3 mps 659 mmHg 40%
    15:00 +28°C° 0 mm 3 mps 659 mmHg 40%
    16:00 +26°C° 0.1 mm 3 mps 658 mmHg 47%
    17:00 +25°C° 0.1 mm 2 mps 658 mmHg 54%
    18:00 +23°C° 0.1 mm 2 mps 658 mmHg 61%
    19:00 +20°C° 0.5 mm 2 mps 659 mmHg 64%
    20:00 +19°C° 0.5 mm 2 mps 659 mmHg 67%
    21:00 +17°C° 0.5 mm 2 mps 659 mmHg 70%
    22:00 +17°C° 0.2 mm 2 mps 659 mmHg 69%
    23:00 +16°C° 0.2 mm 2 mps 660 mmHg 68%
    Show more